Location: Bois de la Silve
(44.4667°N, 6.7833°E)
Time: 19:43:52
(UTC+00:00)

BREEZE-M DEB (TANK) - Pass Details

Date: 14 July 2020
Orbit: 428 x 13237 km, 46.0° (Epoch: 14 August)

Event Time Altitude Azimuth Distance (km) Brightness Sun altitude
Rises 00:03:14 0° 253° (WSW) 7,620 8.4 -23.7°
Reaches altitude 10° 00:10:10 10° 254° (WSW) 4,905 7.4 -23.5°
Maximum altitude 00:20:15 90° 300° (WNW) 861 3.6 -23.2°
Drops below altitude 10° 00:23:51 10° 76° (ENE) 1,836 5.8 -23.1°
Sets 00:25:21 0° 77° (ENE) 2,536 6.5 -23.0°
